Wind_Speed
29 25 26 27 21 17 29 31 30 27 23 19 16 16 14 21 23 18 17 20 18 15 15 15 13 13 13 12 12 11 11 11 11 12 12 12 13 13 12 12 11 12 13 13 13 13 12 12 13
31 26 30 27 21 26 33 35 30 28 21 20 20 12 14 17 16 22 20 23 19 15 14 14 14 13 13 13 12 12 12 12 12 13 14 14 14 14 14 14 14 14 13 12 12 13 13 14 15
33 33 33 30 26 36 42 35 26 27 14 23 23 14 14 19 14 24 19 24 20 18 16 15 14 13 13 13 13 13 13 12 13 13 14 14 15 15 15 15 14 14 13 14 15 15 14 14 14
34 37 35 27 37 48 46 41 32 24 23 20 24 29 13 15 16 21 21 25 22 20 18 16 15 14 13 14 14 14 14 14 14 13 14 14 15 15 15 15 16 16 15 16 15 14 13 13 12
35 40 33 37 43 50 42 30 18 18 27 25 23 25 22 18 17 21 20 23 24 22 20 18 16 15 15 14 14 14 15 14 14 14 14 15 15 16 15 16 16 15 15 14 14 13 13 13 13
36 41 31 35 53 48 43 31 6 30 30 28 25 25 17 22 16 18 24 29 26 23 21 19 17 16 16 16 16 15 15 15 15 16 14 14 15 16 16 16 16 14 14 14 14 14 14 15 16
44 39 24 40 47 45 42 34 21 25 31 29 31 28 20 23 20 24 22 28 27 23 21 20 19 18 18 17 17 16 16 16 15 16 16 15 15 16 15 15 15 14 15 16 17 17 17 16 16
34 21 45 32 38 38 39 24 29 29 24 29 34 30 29 27 22 25 22 28 28 27 23 21 20 19 19 19 19 18 17 16 15 16 17 17 15 15 15 16 16 17 18 17 16 15 14 14 13
39 40 29 48 42 42 33 30 27 24 28 27 30 34 27 26 26 25 28 25 29 30 27 24 23 21 20 20 19 19 19 17 16 16 17 18 18 18 18 18 16 16 16 15 13 12 10 10 10
32 36 46 34 31 36 32 27 30 26 27 28 34 41 28 26 27 26 27 29 32 32 30 27 26 24 22 21 20 19 20 20 19 18 18 18 20 19 18 17 14 12 11 9 7 7 7 8 8
38 38 22 38 29 40 28 30 31 33 27 28 36 34 31 28 25 29 29 27 28 35 33 31 29 27 25 24 22 22 21 20 20 20 18 16 16 16 14 11 9 6 5 4 4 5 6 7 8
34 41 31 25 29 27 24 32 28 31 27 29 30 28 27 24 30 32 32 30 29 33 35 34 33 29 29 29 27 25 23 21 20 18 18 15 12 11 10 7 4 2 0 2 4 6 7 8 7
31 24 28 29 27 24 25 34 32 28 28 26 31 28 27 26 26 29 33 31 31 34 37 36 34 32 31 30 29 28 25 23 20 18 17 16 14 10 8 7 5 2 3 6 7 8 9 10 9
20 30 22 17 32 24 21 24 40 33 25 29 24 27 28 26 25 26 27 30 31 34 37 36 35 34 32 31 30 29 27 24 22 19 18 17 14 13 11 8 7 6 7 8 9 10 11 10 9
26 17 24 19 30 29 10 25 37 34 27 31 24 23 30 28 28 27 26 25 28 30 34 35 33 32 32 31 30 30 28 26 23 21 19 19 18 16 14 13 12 11 11 12 12 12 12 11 11
19 18 23 25 22 32 18 24 40 36 35 28 25 23 30 32 25 26 29 28 28 25 26 30 33 32 30 31 31 30 28 27 26 24 23 22 21 20 19 18 17 17 16 15 15 14 13 12 12
20 10 27 22 23 24 32 19 31 34 38 21 30 21 23 31 28 24 22 26 30 29 27 23 27 29 25 24 24 29 30 28 28 27 28 28 27 25 25 24 22 22 20 19 18 16 14 14 13
22 13 25 24 23 22 36 21 10 35 28 24 20 24 19 24 26 23 23 21 24 28 28 27 26 31 44 39 34 34 34 31 31 32 32 32 32 30 29 28 27 26 24 22 21 17 15 15 15
26 27 12 23 20 22 34 21 20 15 27 26 15 27 22 18 17 20 22 22 23 25 28 27 26 24 27 34 39 37 30 32 35 35 36 35 34 33 32 31 30 29 27 25 22 19 17 17 18
9 18 20 18 15 20 26 20 23 20 12 15 13 16 24 20 18 18 22 24 24 24 25 25 24 24 24 24 24 27 26 28 30 31 33 33 32 33 32 27 28 28 27 25 23 21 19 18 19
8 8 27 20 13 15 21 25 18 25 24 16 26 23 25 31 25 24 26 28 25 26 25 23 23 22 21 21 25 25 27 29 29 30 30 28 25 24 29 34 31 23 22 23 23 23 22 20 20
8 8 21 22 17 17 20 7 31 30 31 28 31 32 29 30 27 25 26 29 32 28 27 26 24 22 22 24 23 26 27 27 27 26 31 30 29 28 25 30 35 40 39 36 28 33 31 25 24
3 4 17 25 15 16 17 4 19 31 35 35 34 35 30 31 28 30 28 25 28 29 29 30 30 28 26 26 25 27 27 29 28 29 32 36 30 31 30 31 29 29 31 37 37 31 29 29 31
8 12 19 14 13 8 18 14 7 35 43 35 28 24 34 35 28 30 30 29 29 31 30 27 32 33 34 33 30 29 30 31 31 33 33 32 35 30 27 34 31 36 34 33 33 35 31 30 36
11 16 4 4 3 3 18 15 4 6 23 37 30 30 28 41 35 32 33 32 32 27 26 25 26 25 27 32 32 33 35 36 37 38 36 40 45 39 37 40 28 29 26 30 28 38 42 22 23
7 7 3 4 3 3 21 8 6 8 13 20 24 24 30 33 41 38 37 36 33 30 28 28 28 29 31 30 33 34 31 32 29 30 34 37 33 34 34 34 37 36 39 44 49 48 32 20 28
10 3 7 2 6 6 8 4 7 12 11 15 21 23 22 20 28 32 38 37 32 32 32 31 27 28 28 29 30 32 34 36 33 31 31 33 27 23 26 24 18 20 20 22 18 20 22 27 29
2 10 3 4 3 2 5 6 5 13 11 14 20 22 27 25 24 28 28 30 28 29 31 28 26 25 25 27 28 29 28 30 31 33 33 22 19 18 18 23 24 28 27 28 28 30 31 33 33
6 12 2 2 1 3 3 1 10 14 15 18 18 25 27 30 28 30 29 27 30 32 33 30 25 23 24 25 25 24 26 29 33 36 35 36 26 27 30 32 30 30 32 32 34 35 34 34 34
8 7 10 2 2 2 2 3 8 12 12 13 17 21 30 28 29 33 32 29 28 26 26 25 24 24 26 30 30 31 31 37 39 33 41 40 23 25 26 27 29 33 35 37 38 38 38 37 35
Wind_Direction
208 197 192 194 202 215 221 215 212 201 206 228 224 239 211 171 180 188 156 158 159 170 164 169 171 169 164 160 153 147 139 136 133 130 131 131 131 131 130 128 124 116 107 104 99 95 90 86 82
211 199 198 190 203 207 223 214 208 195 210 228 220 205 185 191 195 186 164 153 163 166 164 169 170 168 163 157 151 144 137 133 131 127 126 126 126 124 123 119 114 109 107 105 101 97 93 89 86
211 203 198 194 204 208 220 213 195 195 223 206 186 187 167 193 188 192 168 161 163 166 168 169 168 166 162 155 151 144 137 133 127 125 125 124 123 121 119 116 114 112 111 107 101 97 93 91 89
207 205 205 206 208 214 218 214 199 223 223 197 190 205 204 179 174 163 166 165 165 168 168 169 169 168 163 155 150 143 139 133 128 127 126 123 122 120 119 116 113 111 110 105 101 97 93 88 84
204 199 207 207 210 215 215 210 206 235 226 210 192 183 207 192 183 174 176 179 166 169 168 169 170 167 161 155 150 146 141 136 132 132 130 127 124 120 119 116 112 111 108 105 100 96 92 88 83
205 204 211 195 210 211 211 196 160 218 230 214 205 201 194 195 189 182 182 177 169 172 169 170 169 164 159 155 151 148 145 141 137 132 130 128 126 122 120 118 114 113 108 101 97 92 89 84 79
206 211 216 215 210 210 207 203 205 210 217 203 209 201 200 199 189 190 185 177 170 175 173 171 167 162 158 154 151 150 146 143 139 134 130 126 124 124 121 117 113 110 105 100 96 91 85 79 72
207 206 217 214 206 213 203 193 220 208 199 202 196 196 192 197 190 192 182 177 172 176 178 171 167 162 157 154 151 149 143 140 138 134 132 128 125 121 118 114 112 107 101 95 90 83 75 65 56
196 215 204 212 203 208 199 190 187 197 200 193 202 205 195 196 196 198 194 188 187 181 178 175 170 163 158 155 153 148 143 141 138 136 133 129 123 118 113 108 102 97 93 86 79 70 60 51 42
208 221 224 189 198 203 201 205 193 209 200 199 195 202 194 198 200 205 199 196 190 186 181 181 173 169 162 157 152 147 144 143 140 136 133 129 126 122 117 114 107 97 89 83 69 53 36 23 14
215 225 209 212 192 199 203 188 192 195 199 204 196 195 195 197 200 205 206 201 201 192 186 184 179 176 168 162 158 156 153 149 145 142 137 132 126 124 123 119 123 107 90 62 30 12 359 352 350
216 223 213 204 220 212 198 193 190 185 193 197 202 204 198 199 203 199 202 204 206 194 190 189 185 182 175 171 168 167 164 160 157 153 149 147 142 134 142 144 133 144 245 326 339 334 330 332 327
225 218 226 217 218 211 198 191 192 164 166 179 206 202 205 204 198 198 199 202 204 200 197 194 192 188 186 181 178 175 177 174 173 171 167 171 173 170 175 183 195 231 281 302 313 317 314 310 316
221 224 205 208 228 219 203 200 193 183 165 177 196 201 197 205 200 193 192 197 202 205 202 199 196 197 195 190 187 188 188 188 189 189 190 193 197 199 208 222 241 261 279 290 297 302 301 303 307
208 208 209 216 228 227 186 195 199 177 165 172 188 200 192 195 196 193 193 193 199 207 210 207 198 204 202 202 200 200 202 202 205 206 208 212 218 228 233 236 248 262 273 281 289 293 298 299 301
215 207 204 202 211 225 199 206 188 193 187 173 166 199 189 193 193 197 192 194 202 206 209 212 211 210 210 213 211 214 216 218 217 221 226 229 233 239 245 253 256 262 269 278 285 286 285 284 289
204 203 199 205 205 204 211 211 218 202 192 191 179 174 198 185 182 189 199 195 195 199 208 211 216 221 229 242 226 225 225 232 230 230 233 240 243 247 253 257 263 268 273 277 279 274 278 280 281
196 203 196 196 183 207 213 218 196 226 194 186 169 170 203 204 191 186 192 197 202 200 204 208 218 221 224 228 241 245 242 238 242 240 239 241 246 250 255 259 262 264 268 271 268 263 269 274 277
190 208 159 186 175 194 206 217 160 209 222 204 189 175 193 211 217 211 204 200 201 207 206 208 214 223 226 228 230 234 239 241 244 248 251 249 250 250 255 258 262 265 267 265 259 253 259 264 269
147 204 207 168 192 188 190 205 214 203 205 217 223 221 198 198 207 214 214 215 217 209 210 211 213 222 233 241 245 244 244 243 242 246 252 257 258 257 255 258 261 262 261 255 247 246 250 258 266
224 184 200 201 182 199 208 225 218 222 224 196 211 212 201 200 204 222 228 226 219 226 223 222 221 226 233 244 244 243 241 240 243 248 248 251 253 250 249 246 254 261 253 248 247 249 249 252 260
195 197 168 196 196 191 193 203 218 224 208 202 212 212 208 204 199 217 226 232 229 227 231 233 237 239 238 242 249 250 250 243 242 256 255 243 243 242 242 269 264 263 263 260 248 252 250 254 260
186 144 167 186 184 173 193 198 236 213 216 213 210 208 217 201 208 217 223 224 231 228 228 232 238 241 247 249 249 249 249 250 245 246 256 259 243 243 246 249 249 245 250 253 250 244 252 253 253
185 141 163 162 164 183 212 208 220 203 209 206 212 213 206 202 204 212 222 227 227 226 228 231 237 241 247 248 248 251 250 253 257 254 249 259 247 250 246 253 245 244 240 241 240 242 254 263 260
181 138 111 120 185 196 187 196 149 215 225 223 216 222 216 205 207 210 218 225 230 229 229 235 238 244 247 246 247 252 257 259 261 261 258 262 273 255 256 257 253 254 251 250 251 255 253 273 255
200 95 86 136 123 168 165 212 236 188 232 221 224 231 235 222 214 215 221 227 229 232 236 242 244 249 251 250 251 255 264 264 261 261 271 273 260 268 282 276 262 264 280 265 268 258 268 280 284
209 194 98 105 97 101 185 239 197 196 175 201 215 213 205 215 213 210 220 230 230 235 241 246 247 245 248 249 251 255 256 259 265 271 269 268 270 273 279 282 278 268 277 284 273 269 275 275 270
169 190 72 78 116 96 188 210 198 207 203 223 210 210 207 213 204 215 223 226 225 229 241 249 251 247 242 244 250 258 258 257 262 267 274 261 267 276 265 272 271 265 270 276 280 281 279 276 273
158 171 108 64 100 140 145 210 236 232 219 225 216 202 200 213 210 213 225 227 231 237 243 248 251 253 254 253 253 254 255 253 259 269 271 279 255 264 264 270 265 267 272 276 278 279 278 277 276
189 193 210 52 21 71 83 157 136 188 208 213 206 204 209 204 205 213 224 234 233 236 244 249 247 248 251 252 250 254 256 255 264 258 274 268 248 257 261 264 269 272 274 276 276 276 277 277 276
Height
3121 3123 3123 3128 3136 3132 3129 3131 3137 3142 3145 3150 3150 3149 3152 3156 3158 3161 3162 3164 3168 3172 3173 3175 3177 3178 3180 3181 3182 3183 3184 3185 3186 3187 3187 3189 3189 3190 3192 3193 3194 3195 3195 3196 3196 3197 3197 3197 3198
3116 3116 3120 3122 3124 3123 3123 3129 3132 3138 3142 3146 3147 3146 3149 3154 3154 3160 3161 3163 3168 3171 3173 3175 3177 3178 3180 3181 3182 3183 3184 3186 3187 3188 3189 3190 3191 3192 3193 3194 3195 3196 3197 3198 3199 3199 3199 3200 3200
3107 3110 3114 3114 3114 3113 3115 3124 3131 3136 3139 3142 3142 3143 3147 3151 3154 3158 3161 3164 3167 3171 3173 3175 3176 3178 3179 3181 3183 3184 3185 3187 3188 3189 3190 3192 3192 3193 3194 3196 3196 3197 3199 3200 3200 3200 3201 3201 3202
3098 3104 3109 3104 3104 3107 3112 3122 3130 3133 3137 3139 3139 3142 3148 3150 3153 3158 3159 3162 3166 3170 3172 3174 3176 3178 3179 3181 3183 3184 3185 3187 3188 3190 3192 3193 3194 3195 3196 3197 3198 3199 3201 3201 3202 3202 3203 3203 3204
3089 3093 3096 3096 3099 3104 3113 3121 3124 3128 3133 3137 3138 3139 3146 3151 3152 3154 3160 3163 3165 3168 3171 3174 3176 3178 3179 3181 3182 3184 3185 3187 3189 3191 3192 3194 3195 3196 3198 3199 3200 3202 3202 3203 3204 3204 3205 3205 3205
3083 3084 3085 3086 3092 3101 3109 3118 3122 3125 3129 3134 3137 3138 3142 3147 3150 3152 3157 3161 3163 3167 3170 3173 3175 3177 3179 3181 3182 3184 3186 3188 3189 3191 3193 3195 3196 3197 3199 3200 3201 3203 3204 3205 3206 3207 3207 3208 3208
3074 3077 3075 3085 3089 3097 3105 3113 3119 3123 3125 3128 3131 3135 3140 3145 3146 3149 3153 3159 3162 3167 3170 3172 3175 3176 3178 3180 3183 3185 3187 3189 3190 3192 3194 3196 3197 3199 3200 3202 3204 3206 3206 3207 3208 3209 3210 3210 3210
3072 3069 3076 3079 3086 3093 3104 3110 3114 3118 3120 3124 3127 3131 3136 3141 3143 3147 3153 3157 3161 3165 3169 3172 3174 3177 3178 3180 3183 3185 3187 3190 3192 3193 3195 3196 3199 3200 3202 3204 3206 3207 3208 3210 3211 3211 3211 3212 3212
3067 3068 3066 3075 3082 3093 3102 3106 3111 3115 3117 3121 3126 3128 3137 3141 3143 3146 3152 3155 3159 3164 3168 3171 3174 3176 3179 3181 3183 3185 3187 3190 3193 3195 3196 3198 3200 3202 3204 3206 3208 3210 3210 3212 3213 3213 3213 3213 3213
3062 3059 3062 3070 3083 3090 3093 3101 3108 3109 3113 3118 3122 3125 3132 3137 3141 3144 3148 3153 3158 3161 3165 3169 3173 3176 3178 3181 3184 3186 3188 3190 3193 3196 3198 3200 3201 3203 3205 3207 3209 3211 3212 3213 3213 3214 3214 3214 3213
3056 3054 3062 3070 3079 3081 3089 3097 3100 3106 3111 3114 3117 3122 3129 3134 3138 3140 3146 3151 3156 3160 3163 3167 3171 3174 3177 3180 3183 3186 3189 3191 3193 3195 3198 3201 3203 3204 3206 3209 3210 3211 3212 3213 3214 3214 3214 3214 3214
3052 3052 3063 3070 3067 3074 3083 3089 3092 3099 3110 3114 3117 3121 3127 3130 3136 3138 3143 3148 3152 3158 3162 3165 3169 3173 3176 3179 3182 3186 3188 3191 3194 3196 3198 3201 3203 3205 3207 3209 3211 3211 3212 3213 3214 3214 3214 3214 3214
3048 3051 3057 3063 3065 3071 3079 3083 3089 3097 3103 3109 3113 3117 3123 3127 3131 3136 3141 3145 3150 3155 3159 3164 3168 3172 3175 3179 3181 3185 3188 3190 3193 3195 3198 3200 3202 3204 3206 3209 3210 3211 3212 3213 3213 3214 3213 3213 3213
3046 3049 3054 3059 3059 3067 3071 3079 3087 3095 3098 3103 3109 3114 3119 3124 3129 3132 3136 3142 3147 3152 3157 3161 3166 3170 3174 3178 3181 3184 3186 3190 3192 3194 3197 3199 3201 3203 3205 3207 3209 3210 3211 3211 3212 3212 3212 3211 3211
3043 3048 3053 3056 3058 3060 3067 3077 3080 3089 3095 3098 3105 3111 3116 3121 3126 3130 3134 3139 3145 3150 3154 3159 3163 3168 3172 3177 3180 3183 3185 3188 3192 3193 3195 3197 3199 3201 3203 3205 3207 3208 3208 3209 3209 3209 3208 3208 3208
3042 3048 3051 3055 3057 3061 3069 3072 3079 3084 3089 3094 3099 3108 3112 3117 3123 3128 3132 3137 3142 3148 3153 3156 3161 3166 3170 3174 3178 3181 3184 3186 3190 3192 3194 3195 3197 3199 3200 3202 3204 3204 3205 3205 3205 3205 3205 3205 3205
3039 3043 3048 3053 3056 3061 3068 3073 3077 3085 3086 3089 3098 3104 3108 3114 3120 3125 3129 3134 3140 3145 3150 3153 3158 3163 3168 3173 3177 3179 3181 3184 3187 3189 3191 3192 3194 3196 3197 3198 3200 3200 3201 3201 3201 3201 3201 3202 3202
3033 3042 3047 3050 3055 3059 3064 3072 3074 3078 3084 3086 3092 3098 3106 3110 3117 3122 3127 3132 3135 3140 3145 3151 3154 3157 3163 3166 3171 3176 3178 3181 3182 3183 3186 3188 3190 3191 3193 3194 3195 3196 3197 3197 3197 3197 3198 3198 3199
3036 3041 3043 3051 3056 3059 3062 3071 3071 3082 3082 3084 3089 3096 3104 3108 3114 3119 3123 3129 3134 3137 3141 3146 3151 3155 3158 3162 3166 3169 3173 3175 3176 3178 3180 3182 3184 3187 3187 3188 3190 3191 3192 3192 3192 3193 3193 3193 3193
3035 3039 3044 3049 3054 3059 3063 3070 3074 3082 3082 3083 3088 3096 3103 3107 3110 3115 3119 3124 3129 3135 3139 3142 3147 3151 3155 3158 3162 3164 3166 3168 3170 3173 3175 3176 3177 3179 3182 3182 3184 3185 3186 3186 3186 3187 3187 3188 3188
3033 3037 3044 3049 3054 3060 3065 3070 3072 3076 3081 3083 3091 3096 3100 3104 3109 3111 3115 3120 3126 3129 3134 3139 3143 3146 3150 3154 3155 3159 3161 3163 3165 3166 3168 3170 3171 3172 3173 3173 3177 3178 3180 3182 3181 3182 3182 3183 3183
3033 3036 3041 3049 3054 3057 3062 3066 3069 3070 3076 3079 3087 3092 3096 3101 3106 3107 3111 3115 3121 3127 3130 3135 3139 3143 3146 3148 3151 3155 3157 3158 3161 3162 3164 3165 3166 3167 3166 3167 3167 3169 3171 3175 3174 3175 3177 3177 3177
3033 3035 3038 3045 3053 3057 3060 3065 3060 3065 3073 3074 3079 3086 3091 3097 3101 3103 3106 3113 3116 3121 3126 3130 3134 3138 3141 3144 3146 3148 3151 3153 3154 3156 3157 3160 3160 3161 3161 3162 3162 3163 3162 3163 3165 3167 3168 3167 3169
3035 3037 3042 3046 3052 3057 3058 3062 3057 3059 3057 3068 3075 3080 3087 3092 3096 3098 3102 3108 3111 3115 3119 3124 3127 3131 3135 3137 3140 3142 3144 3146 3148 3149 3150 3152 3156 3157 3157 3158 3157 3157 3157 3157 3158 3159 3160 3160 3161
3034 3034 3038 3045 3051 3051 3054 3061 3057 3058 3060 3063 3069 3076 3081 3087 3091 3093 3096 3100 3104 3109 3114 3119 3122 3125 3128 3131 3134 3136 3139 3141 3143 3145 3147 3148 3149 3150 3151 3153 3150 3150 3152 3152 3152 3154 3153 3153 3155
3034 3036 3038 3041 3048 3051 3054 3056 3054 3055 3056 3062 3067 3072 3077 3082 3087 3089 3092 3095 3100 3104 3108 3113 3117 3120 3122 3126 3128 3130 3133 3135 3138 3139 3141 3141 3143 3143 3146 3145 3145 3145 3147 3148 3145 3146 3146 3145 3148
3037 3040 3042 3042 3044 3050 3054 3053 3053 3056 3057 3059 3063 3068 3072 3077 3080 3084 3087 3091 3096 3100 3104 3108 3111 3114 3116 3120 3123 3126 3128 3130 3131 3133 3134 3135 3134 3134 3135 3136 3138 3140 3139 3139 3140 3140 3140 3141 3142
3037 3040 3044 3043 3049 3052 3053 3053 3054 3056 3058 3061 3064 3065 3068 3074 3076 3080 3083 3087 3091 3095 3098 3102 3105 3108 3112 3115 3118 3121 3124 3125 3126 3127 3128 3128 3129 3129 3131 3132 3133 3134 3134 3134 3133 3133 3133 3133 3133
3039 3040 3044 3045 3046 3048 3054 3053 3052 3055 3057 3058 3060 3063 3066 3070 3074 3078 3079 3083 3087 3091 3094 3097 3100 3103 3106 3109 3112 3115 3117 3119 3119 3119 3120 3121 3122 3124 3125 3126 3127 3127 3127 3126 3126 3126 3126 3125 3124
3038 3042 3044 3044 3048 3049 3050 3054 3053 3054 3054 3056 3057 3061 3065 3068 3071 3074 3076 3078 3083 3087 3090 3092 3096 3099 3101 3104 3106 3109 3112 3113 3114 3114 3114 3113 3115 3117 3118 3119 3119 3120 3120 3119 3119 3118 3117 3116 3115